KT4FD Weather Reports


time (UTC)temp
C
wind
direction
speed
KPH
gust
KPH
rain 1hr
cm
rain 24hr
cm
rain mn
cm
humidity
%
barometer
mb
20260507012003 16 267 0.0 0.0 0.41 1.27 1.27 85 1015.5
20260507011003 16 267 0.0 0.0 0.43 1.27 1.27 85 1015.4
20260507010003 17 267 0.0 4.8 0.46 1.27 1.27 85 1014.9
20260507005003 17 265 1.6 12.9 0.86 1.22 1.22 85 1015.8
20260507004003 17 146 3.2 11.3 0.71 1.07 1.07 85 1015.7
20260507003003 17 346 0.0 3.2 0.53 0.89 0.89 85 1014.8
20260506232003 17 296 0.0 1.6 0.10 0.38 0.38 85 1013.2
20260506231003 17 297 0.0 1.6 0.10 0.38 0.38 85 1013.2
20260506230003 17 301 0.0 0.0 0.05 0.33 0.33 85 1014.0
20260506225003 18 301 0.0 0.0 0.13 0.33 0.33 85 1014.3
20260506224003 18 301 0.0 1.6 0.13 0.33 0.33 85 1014.6
20260506223003 18 301 0.0 4.8 0.13 0.33 0.33 85 1014.6
20260506212003 20 292 0.0 4.8 0.00 0.20 0.20 85 1013.8
20260506211003 20 292 3.2 4.8 0.00 0.20 0.20 85 1014.0
20260506210004 20 292 0.0 1.6 0.00 0.20 0.20 85 1014.0
20260506205003 20 291 0.0 0.0 0.00 0.20 0.20 85 1014.0
20260506204003 20 291 0.0 0.0 0.00 0.20 0.20 85 1014.5
20260506203003 20 291 0.0 3.2 0.00 0.20 0.20 85 1014.8
20260506160003 17 217 0.0 8.0 0.13 0.20 0.20 85 1015.9
20260506155003 17 157 1.6 4.8 0.13 0.20 0.20 85 1015.6
20260506154003 17 181 1.6 12.9 0.13 0.20 0.20 85 1017.5
20260506153003 17 202 3.2 4.8 0.05 0.15 0.15 85 1017.7
20260506152004 17 202 1.6 4.8 0.15 0.15 0.15 85 1016.9
20260506141003 17 211 4.8 9.7 0.00 0.00 0.00 84 1016.4
20260506140003 17 211 3.2 11.3 0.00 0.00 0.00 84 1016.4
20260506135004 17 223 8.0 12.9 0.00 0.00 0.00 84 1016.3
20260506134003 17 213 6.4 12.9 0.00 0.00 0.00 84 1016.2
20260506133003 17 208 4.8 9.7 0.00 0.00 0.00 84 1016.3
20260506132004 17 213 3.2 9.7 0.00 0.00 0.00 85 1016.2
20260506110003 16 203 3.2 4.8 0.00 0.00 0.00 82 1015.3
20260506105003 16 204 3.2 4.8 0.00 0.00 0.00 82 1015.6
20260506104003 16 204 3.2 4.8 0.00 0.00 0.00 80 1015.4
20260506103003 16 204 0.0 0.0 0.00 0.00 0.00 80 1015.2
20260506102002 16 205 0.0 0.0 0.00 0.00 0.00 78 1015.2
20260506101003 16 205 0.0 0.0 0.00 0.00 0.00 78 1015.0
20260506100002 16 205 0.0 0.0 0.00 0.00 0.00 79 1014.9
20260506095002 16 205 0.0 0.0 0.00 0.00 0.00 79 1014.7
20260506094003 16 205 0.0 0.0 0.00 0.00 0.00 79 1014.7
20260506093003 16 205 0.0 0.0 0.00 0.00 0.00 78 1014.5
20260506092003 16 205 0.0 0.0 0.00 0.00 0.00 77 1014.6
20260506091003 16 205 0.0 0.0 0.00 0.00 0.00 77 1014.2
20260506073003 17 205 0.0 3.2 0.00 0.00 0.00 71 1015.1
20260506072003 17 205 1.6 3.2 0.00 0.00 0.00 71 1014.9
20260506071002 17 205 0.0 9.7 0.00 0.00 0.00 68 1014.9
20260506051003 17 210 0.0 0.0 0.00 0.00 0.00 70 1016.1
20260506034003 16 204 3.2 12.9 0.00 0.00 0.00 69 1016.1
20260506033004 16 172 0.0 0.0 0.00 0.00 0.00 71 1016.1
20260506032003 16 172 0.0 0.0 0.00 0.00 0.00 76 1016.3
20260506031003 16 172 0.0 0.0 0.00 0.00 0.00 75 1016.4
20260506030003 16 172 0.0 0.0 0.00 0.00 0.00 75 1016.5
20260506025003 16 173 0.0 0.0 0.00 0.00 0.00 73 1016.3
20260506024003 16 172 0.0 0.0 0.00 0.00 0.00 71 1016.0